SCP
0 0 0 0 0 0 0 0 0 0 0 0 0 0 0 0 0 0 -0 0 0 0 0 0 -0 -0 0 0 1 1 1 2 4 3 3 3 2 2 2 2 2 2 2 3
0 0 0 0 0 0 0 0 0 0 0 0 0 0 0 0 0 0 0 0 0 0 0 0 0 0 0 0 0 1 1 2 2 3 3 3 2 2 2 2 2 2 2 2
0 0 0 0 0 0 0 0 0 0 0 0 0 0 0 0 0 0 0 0 0 0 0 0 0 0 0 0 1 1 1 1 1 1 2 1 2 1 1 2 2 2 2 2
0 0 0 0 0 0 0 0 0 0 0 0 0 0 0 0 0 0 0 0 0 0 0 0 0 0 0 0 0 0 1 2 1 1 2 1 1 1 1 1 2 2 2 1
0 0 0 0 0 0 0 0 0 0 0 0 0 0 0 0 0 0 0 0 0 0 0 0 0 0 0 0 0 0 0 0 2 1 1 2 2 2 1 1 1 2 3 3
0 0 0 0 0 0 0 0 0 0 0 0 0 0 0 0 0 0 0 0 0 0 0 0 0 0 0 0 0 0 0 0 1 2 2 2 2 2 1 1 1 2 2 4
0 0 0 0 0 0 0 0 0 0 0 0 0 0 0 0 -0 0 0 0 0 0 0 0 0 0 0 1 1 0 0 0 0 0 0 0 1 0 0 0 1 1 2 2
0 0 0 0 0 0 0 0 0 0 0 0 0 0 0 0 0 0 0 0 0 0 0 0 0 0 0 0 0 0 0 0 0 0 0 0 1 1 1 1 2 2 3 3
0 0 0 0 0 0 0 0 0 0 0 0 0 0 0 0 0 0 0 0 0 0 0 0 0 0 0 0 0 0 0 0 0 0 0 1 1 1 1 1 2 3 3 3
0 0 0 0 -0 0 0 0 0 0 0 0 0 0 0 -0 0 0 0 0 0 0 0 0 0 0 0 0 0 0 0 0 0 0 0 0 0 1 1 1 1 2 2 3
0 0 0 0 0 0 0 0 0 0 0 1 0 0 0 0 0 0 0 0 0 0 0 0 0 0 0 0 0 0 0 0 0 0 0 0 0 1 1 1 1 1 2 2
0 0 0 0 0 0 0 0 0 0 0 0 0 0 0 0 0 0 0 0 0 0 0 0 0 0 0 0 0 0 0 0 0 0 0 0 0 0 0 0 1 1 1 1
0 0 0 0 0 0 0 0 0 0 0 0 0 0 0 0 -0 0 0 0 1 0 1 1 1 0 0 0 0 0 0 0 0 0 0 0 0 0 0 0 0 0 0 0
-0 0 0 0 0 0 0 0 0 0 0 0 0 0 0 0 0 0 0 0 1 1 1 1 1 0 0 0 0 0 0 0 0 0 0 0 0 0 0 0 0 0 0 0
0 0 0 0 0 0 0 0 0 0 0 0 0 0 0 0 0 -0 0 1 0 1 1 1 0 0 0 0 0 0 0 0 0 0 0 0 0 0 0 0 0 0 0 0
0 0 0 0 0 0 0 0 0 0 0 0 0 0 0 0 0 0 0 1 0 0 0 0 0 0 0 0 0 0 0 0 0 0 0 0 0 0 0 0 0 0 0 0
0 0 0 0 0 0 0 0 0 0 0 0 0 0 0 0 -0 0 0 1 0 0 0 0 0 0 0 0 0 0 0 0 0 0 0 0 0 0 0 0 0 0 0 0
0 0 0 0 0 0 0 0 0 0 0 0 0 0 0 0 0 0 0 0 0 0 0 0 0 0 0 0 0 0 0 0 0 0 0 0 0 0 0 0 0 0 0 0
0 0 0 0 0 0 0 -0 0 0 0 0 0 0 -0 0 -0 0 0 0 0 0 0 0 0 0 0 0 0 0 0 0 0 0 0 0 0 0 0 0 0 0 0 0
-0 0 0 0 0 0 0 -0 0 -0 0 0 0 0 0 0 0 0 0 0 0 0 0 0 0 0 0 0 0 0 0 0 0 0 0 0 0 0 0 0 0 0 0 0
0 0 0 0 0 0 0 -0 -0 0 0 0 0 0 0 0 0 1 0 0 0 0 0 0 0 0 0 0 0 0 0 0 0 0 0 0 0 0 0 0 0 0 0 0
0 0 0 0 0 0 -0 -0 -0 0 -0 -0 -0 0 0 0 0 0 0 0 0 0 0 0 0 0 0 0 0 0 0 0 0 0 0 0 0 0 0 0 0 0 0 0
0 0 0 0 0 0 -0 0 -0 -0 -0 -0 -0 -0 0 0 0 0 0 0 0 0 0 0 0 0 0 0 0 0 0 0 0 0 0 0 0 0 0 0 0 0 0 0
0 0 0 0 0 -0 -0 -0 -0 -0 -0 -0 0 -0 0 0 0 0 0 0 0 0 0 0 0 0 0 0 0 0 0 0 0 0 0 0 0 0 0 0 0 0 0 0
0 0 0 0 0 -0 -0 -0 -0 -0 -0 -0 0 -0 0 0 0 0 0 0 0 0 0 0 0 0 0 0 0 0 0 0 0 0 0 0 0 0 0 0 0 0 0 0
0 0 0 0 0 -0 -0 -0 -0 -0 -0 -0 0 0 0 0 0 0 0 0 0 0 0 0 0 0 0 0 0 0 0 0 0 0 0 0 0 0 0 0 0 0 0 0
Wind_Speed_500mb
42 31 33 39 37 43 38 43 42 43 35 41 26 36 34 39 36 39 45 23 34 51 46 45 41 42 29 34 35 60 60 63 62 66 73 70 72 66 70 70 70 68 70 68
36 42 43 44 45 45 46 47 40 39 43 37 37 36 40 33 39 40 39 26 19 21 24 26 31 23 21 36 36 42 57 62 66 69 68 70 66 65 63 68 71 71 69 71
43 48 47 49 46 43 43 44 37 43 43 45 41 41 37 48 58 37 16 20 14 9 14 10 5 11 23 24 32 42 43 60 63 62 57 55 54 51 59 65 66 68 68 72
46 48 49 50 54 45 40 41 42 43 39 28 35 31 38 32 12 25 30 24 16 13 9 7 6 13 28 37 43 45 42 50 56 55 54 53 55 62 62 59 57 64 66 71
53 50 50 49 54 46 43 41 35 38 36 34 39 22 29 33 35 34 31 35 23 15 18 18 14 13 8 11 27 54 55 36 48 50 53 52 53 50 52 50 55 58 60 66
54 74 55 55 52 48 44 42 38 34 24 28 38 30 36 32 35 34 25 45 37 28 17 21 22 19 19 22 19 15 21 46 19 33 33 46 48 46 46 51 57 55 56 54
53 59 55 56 53 48 45 32 24 29 26 25 37 34 40 41 40 42 17 44 45 38 35 30 28 25 20 22 26 27 25 22 30 32 38 39 41 41 46 52 50 52 58 58
36 40 53 49 52 50 43 35 28 47 31 30 42 43 38 45 10 20 9 37 47 41 37 34 32 26 22 21 25 23 15 14 7 1 6 16 26 28 29 33 35 39 45 47
38 49 53 53 45 50 49 43 44 41 40 28 35 49 47 27 8 7 9 30 41 41 36 29 30 30 23 15 19 23 22 21 22 22 22 20 20 21 28 33 40 46 51 56
38 37 32 67 57 43 33 39 42 32 43 47 38 46 31 38 24 21 29 34 45 44 44 40 34 24 24 19 16 18 16 11 6 3 4 10 15 24 30 35 38 40 40 44
28 15 37 39 50 42 30 27 37 33 33 32 37 35 33 36 27 22 18 39 50 45 52 47 37 26 23 23 19 21 17 15 14 13 15 16 18 19 20 21 27 33 35 38
23 10 22 43 45 39 31 42 35 12 17 31 32 29 30 31 32 23 29 52 63 58 52 45 34 28 26 24 22 20 21 21 20 21 22 24 23 24 26 30 31 32 35 38
17 11 15 25 31 37 34 31 51 42 24 40 26 34 27 34 45 41 41 18 48 56 48 43 38 33 28 28 24 24 23 24 21 18 20 23 28 31 33 33 31 29 29 31
6 15 23 25 42 47 37 37 39 43 33 27 33 51 58 47 44 41 24 27 50 52 50 44 38 35 29 30 27 22 20 18 15 12 15 23 28 32 33 31 32 31 30 29
9 25 26 46 49 45 53 57 51 44 44 47 54 48 49 46 42 52 40 39 36 38 48 47 41 32 29 28 25 18 14 13 10 13 19 23 28 29 29 30 29 32 33 32
15 17 23 49 51 41 41 58 59 58 52 43 52 55 58 52 75 72 54 39 44 35 33 39 39 34 27 25 23 19 9 10 12 14 18 25 28 25 27 32 31 30 29 28
27 14 16 42 34 38 33 40 41 51 54 42 47 60 43 41 48 67 35 42 39 48 45 44 37 31 27 25 23 21 15 12 15 15 22 22 24 21 27 27 28 30 28 29
34 29 20 31 36 29 32 32 40 52 57 53 48 54 48 46 53 39 56 55 56 57 51 47 41 32 28 26 24 22 19 13 15 18 18 20 24 23 26 25 25 25 25 34
36 29 26 30 31 42 57 47 45 34 56 50 58 53 49 72 43 11 45 63 73 55 50 43 40 35 31 28 25 23 18 17 17 19 18 20 20 22 24 23 28 27 32 31
40 40 31 30 28 29 48 34 58 41 44 33 41 51 53 49 25 9 25 33 48 60 57 49 40 34 30 24 22 19 18 15 19 17 17 16 17 17 17 19 24 25 28 31
27 26 29 30 37 36 60 54 63 31 22 65 74 85 43 24 38 39 43 50 50 48 49 47 39 36 29 22 14 16 17 19 15 10 9 14 17 15 21 19 20 23 23 26
39 31 28 30 38 48 37 35 37 19 71 80 98 122 57 40 33 52 62 63 55 58 50 40 39 36 32 22 16 19 19 16 10 13 16 19 20 20 21 22 22 24 28 31
34 34 29 34 31 53 80 74 87 90 77 91 87 123 38 53 70 76 71 66 49 50 49 36 30 30 26 20 15 15 16 13 13 16 21 18 16 17 22 25 27 29 31 32
37 46 31 37 43 53 72 78 87 92 73 90 129 141 59 66 71 70 63 57 54 48 48 36 29 26 26 20 17 18 16 15 18 19 17 16 20 22 26 26 30 33 36 43
28 36 40 38 45 59 74 76 70 79 93 92 97 85 67 84 72 79 68 62 51 43 36 29 30 29 27 22 22 20 18 16 20 19 18 17 21 23 23 27 30 30 33 40
49 38 30 35 62 52 67 78 77 71 93 120 119 25 56 73 77 76 72 59 51 40 31 34 33 29 27 21 20 21 19 17 20 15 23 31 30 34 36 38 42 34 31 37
Wind_Direction_500mb
234 239 241 252 247 255 264 272 281 293 307 301 278 279 282 278 268 270 276 273 236 244 241 252 260 259 245 245 217 202 211 222 229 232 236 233 231 234 227 236 232 239 232 242
242 242 242 255 256 265 271 277 281 276 280 272 274 280 280 280 278 272 274 280 275 240 243 253 240 229 243 225 225 208 214 225 230 236 243 246 242 233 240 238 240 237 240 236
246 247 242 246 249 258 266 269 268 279 286 288 291 276 271 265 252 243 249 259 275 280 257 225 193 221 236 222 222 222 214 225 232 236 237 239 235 243 237 239 243 247 247 244
254 252 253 257 256 241 259 263 263 264 267 268 269 279 290 293 252 193 216 228 237 178 206 193 213 218 227 225 227 226 220 222 228 235 232 235 236 235 238 239 246 247 250 255
250 255 254 261 261 258 260 266 272 280 289 286 264 266 268 268 268 269 190 183 210 188 164 145 136 130 154 238 243 231 221 208 219 226 237 233 235 244 250 254 254 252 255 256
251 251 254 255 256 256 264 260 262 269 257 264 264 264 269 264 275 281 204 174 178 173 179 155 142 124 104 90 96 108 198 215 211 213 233 235 239 249 254 257 256 257 255 257
246 248 252 256 261 269 241 249 252 247 242 249 251 248 254 261 260 253 299 158 171 175 180 172 161 135 122 104 97 106 128 161 197 212 225 238 253 256 255 249 251 257 257 255
261 253 241 240 245 253 253 242 242 247 243 250 240 243 246 251 284 18 288 182 165 176 183 184 155 149 142 132 121 106 91 71 61 100 244 240 253 265 275 288 289 283 278 274
254 261 277 286 286 239 243 242 253 252 260 258 272 280 282 269 228 264 270 171 173 177 178 178 159 152 138 147 139 139 131 156 178 187 204 212 229 253 271 269 268 270 270 273
333 294 234 276 291 288 282 305 230 242 248 247 247 256 262 273 267 227 213 190 175 182 175 183 166 155 148 162 147 137 153 156 153 197 263 262 259 256 265 270 273 273 275 282
28 315 295 269 259 268 273 263 268 246 244 240 244 244 256 268 290 315 262 176 174 193 177 162 154 159 152 161 142 124 108 89 74 59 43 33 24 15 359 340 320 306 295 287
12 287 282 276 281 283 263 273 263 242 279 292 268 239 239 258 249 305 304 197 194 191 168 161 154 154 155 149 134 115 108 97 88 82 68 57 44 34 21 12 4 354 339 314
356 16 315 273 263 255 264 220 257 278 221 255 277 274 261 272 275 272 285 245 181 165 156 155 159 159 166 144 125 121 106 89 77 56 43 33 18 8 2 352 349 349 351 346
126 273 252 276 292 321 305 284 234 237 256 269 270 263 281 278 285 294 237 271 165 159 157 154 158 154 160 137 125 109 98 95 75 43 19 15 11 1 356 348 342 337 340 339
271 268 280 276 283 291 302 304 293 271 230 239 254 262 275 284 280 275 289 193 157 161 157 162 162 162 156 130 115 108 101 90 64 30 10 11 12 359 348 342 338 335 335 339
248 272 306 292 287 277 317 297 279 278 265 255 251 261 251 268 282 282 287 149 142 186 176 166 162 163 145 122 116 111 111 80 63 46 27 7 13 5 352 350 346 336 339 338
292 299 301 274 301 331 293 263 272 270 265 258 256 259 265 258 261 282 181 159 198 190 184 168 163 155 139 126 121 104 93 87 74 50 29 11 11 8 356 356 346 342 357 326
261 272 274 281 301 272 258 280 302 295 285 263 255 254 265 264 268 264 312 188 204 185 174 157 152 148 130 124 120 118 105 86 65 45 37 10 10 8 355 6 340 346 330 332
253 248 248 251 256 280 290 265 271 292 307 268 254 261 260 253 284 204 223 297 180 160 146 145 147 139 132 123 126 116 96 76 54 45 27 17 11 9 357 356 343 337 334 356
230 237 245 241 241 248 263 282 259 351 282 286 268 252 252 253 246 206 182 149 123 135 140 133 133 125 116 118 125 118 101 73 60 43 28 13 14 5 355 339 348 4 10 14
268 278 262 253 248 254 261 280 289 269 279 329 329 312 253 244 243 188 142 124 127 125 129 132 126 117 113 118 123 101 78 60 47 39 17 353 358 359 348 6 5 359 2 354
257 258 261 274 268 263 277 288 235 289 323 318 319 310 254 208 186 150 145 133 129 127 123 120 123 122 118 124 115 85 62 62 34 7 2 8 13 11 1 359 356 347 344 343
261 263 267 258 268 277 281 298 297 295 300 304 305 305 190 146 133 133 132 132 130 132 127 132 134 126 122 109 83 71 65 34 16 15 24 11 349 351 351 348 348 347 347 348
259 263 274 279 266 275 290 296 302 300 307 304 305 294 144 136 133 125 125 126 127 125 125 145 132 117 102 92 80 65 57 43 27 34 32 352 1 11 1 358 360 358 359 353
264 278 269 265 275 279 277 281 294 302 303 300 287 279 142 134 131 130 125 128 129 121 132 131 118 107 93 80 68 59 53 59 44 29 6 13 4 11 350 352 353 359 352 343
250 254 256 260 262 271 282 287 289 294 296 299 292 192 134 128 125 131 135 133 135 134 131 119 106 98 91 84 80 74 58 48 64 17 20 350 359 356 352 348 342 348 342 329
Wind_Speed_850mb
42 31 33 39 37 43 38 43 42 43 35 41 26 36 34 39 36 39 45 23 34 51 46 45 41 42 29 34 35 60 60 63 62 66 73 70 72 66 70 70 70 68 70 68
36 42 43 44 45 45 46 47 40 39 43 37 37 36 40 33 39 40 39 26 19 21 24 26 31 23 21 36 36 42 57 62 66 69 68 70 66 65 63 68 71 71 69 71
43 48 47 49 46 43 43 44 37 43 43 45 41 41 37 48 58 37 16 20 14 9 14 10 5 11 23 24 32 42 43 60 63 62 57 55 54 51 59 65 66 68 68 72
46 48 49 50 54 45 40 41 42 43 39 28 35 31 38 32 12 25 30 24 16 13 9 7 6 13 28 37 43 45 42 50 56 55 54 53 55 62 62 59 57 64 66 71
53 50 50 49 54 46 43 41 35 38 36 34 39 22 29 33 35 34 31 35 23 15 18 18 14 13 8 11 27 54 55 36 48 50 53 52 53 50 52 50 55 58 60 66
54 74 55 55 52 48 44 42 38 34 24 28 38 30 36 32 35 34 25 45 37 28 17 21 22 19 19 22 19 15 21 46 19 33 33 46 48 46 46 51 57 55 56 54
53 59 55 56 53 48 45 32 24 29 26 25 37 34 40 41 40 42 17 44 45 38 35 30 28 25 20 22 26 27 25 22 30 32 38 39 41 41 46 52 50 52 58 58
36 40 53 49 52 50 43 35 28 47 31 30 42 43 38 45 10 20 9 37 47 41 37 34 32 26 22 21 25 23 15 14 7 1 6 16 26 28 29 33 35 39 45 47
38 49 53 53 45 50 49 43 44 41 40 28 35 49 47 27 8 7 9 30 41 41 36 29 30 30 23 15 19 23 22 21 22 22 22 20 20 21 28 33 40 46 51 56
38 37 32 67 57 43 33 39 42 32 43 47 38 46 31 38 24 21 29 34 45 44 44 40 34 24 24 19 16 18 16 11 6 3 4 10 15 24 30 35 38 40 40 44
28 15 37 39 50 42 30 27 37 33 33 32 37 35 33 36 27 22 18 39 50 45 52 47 37 26 23 23 19 21 17 15 14 13 15 16 18 19 20 21 27 33 35 38
23 10 22 43 45 39 31 42 35 12 17 31 32 29 30 31 32 23 29 52 63 58 52 45 34 28 26 24 22 20 21 21 20 21 22 24 23 24 26 30 31 32 35 38
17 11 15 25 31 37 34 31 51 42 24 40 26 34 27 34 45 41 41 18 48 56 48 43 38 33 28 28 24 24 23 24 21 18 20 23 28 31 33 33 31 29 29 31
6 15 23 25 42 47 37 37 39 43 33 27 33 51 58 47 44 41 24 27 50 52 50 44 38 35 29 30 27 22 20 18 15 12 15 23 28 32 33 31 32 31 30 29
9 25 26 46 49 45 53 57 51 44 44 47 54 48 49 46 42 52 40 39 36 38 48 47 41 32 29 28 25 18 14 13 10 13 19 23 28 29 29 30 29 32 33 32
15 17 23 49 51 41 41 58 59 58 52 43 52 55 58 52 75 72 54 39 44 35 33 39 39 34 27 25 23 19 9 10 12 14 18 25 28 25 27 32 31 30 29 28
27 14 16 42 34 38 33 40 41 51 54 42 47 60 43 41 48 67 35 42 39 48 45 44 37 31 27 25 23 21 15 12 15 15 22 22 24 21 27 27 28 30 28 29
34 29 20 31 36 29 32 32 40 52 57 53 48 54 48 46 53 39 56 55 56 57 51 47 41 32 28 26 24 22 19 13 15 18 18 20 24 23 26 25 25 25 25 34
36 29 26 30 31 42 57 47 45 34 56 50 58 53 49 72 43 11 45 63 73 55 50 43 40 35 31 28 25 23 18 17 17 19 18 20 20 22 24 23 28 27 32 31
40 40 31 30 28 29 48 34 58 41 44 33 41 51 53 49 25 9 25 33 48 60 57 49 40 34 30 24 22 19 18 15 19 17 17 16 17 17 17 19 24 25 28 31
27 26 29 30 37 36 60 54 63 31 22 65 74 85 43 24 38 39 43 50 50 48 49 47 39 36 29 22 14 16 17 19 15 10 9 14 17 15 21 19 20 23 23 26
39 31 28 30 38 48 37 35 37 19 71 80 98 122 57 40 33 52 62 63 55 58 50 40 39 36 32 22 16 19 19 16 10 13 16 19 20 20 21 22 22 24 28 31
34 34 29 34 31 53 80 74 87 90 77 91 87 123 38 53 70 76 71 66 49 50 49 36 30 30 26 20 15 15 16 13 13 16 21 18 16 17 22 25 27 29 31 32
37 46 31 37 43 53 72 78 87 92 73 90 129 141 59 66 71 70 63 57 54 48 48 36 29 26 26 20 17 18 16 15 18 19 17 16 20 22 26 26 30 33 36 43
28 36 40 38 45 59 74 76 70 79 93 92 97 85 67 84 72 79 68 62 51 43 36 29 30 29 27 22 22 20 18 16 20 19 18 17 21 23 23 27 30 30 33 40
49 38 30 35 62 52 67 78 77 71 93 120 119 25 56 73 77 76 72 59 51 40 31 34 33 29 27 21 20 21 19 17 20 15 23 31 30 34 36 38 42 34 31 37
Wind_Direction_850mb
234 239 241 252 247 255 264 272 281 293 307 301 278 279 282 278 268 270 276 273 236 244 241 252 260 259 245 245 217 202 211 222 229 232 236 233 231 234 227 236 232 239 232 242
242 242 242 255 256 265 271 277 281 276 280 272 274 280 280 280 278 272 274 280 275 240 243 253 240 229 243 225 225 208 214 225 230 236 243 246 242 233 240 238 240 237 240 236
246 247 242 246 249 258 266 269 268 279 286 288 291 276 271 265 252 243 249 259 275 280 257 225 193 221 236 222 222 222 214 225 232 236 237 239 235 243 237 239 243 247 247 244
254 252 253 257 256 241 259 263 263 264 267 268 269 279 290 293 252 193 216 228 237 178 206 193 213 218 227 225 227 226 220 222 228 235 232 235 236 235 238 239 246 247 250 255
250 255 254 261 261 258 260 266 272 280 289 286 264 266 268 268 268 269 190 183 210 188 164 145 136 130 154 238 243 231 221 208 219 226 237 233 235 244 250 254 254 252 255 256
251 251 254 255 256 256 264 260 262 269 257 264 264 264 269 264 275 281 204 174 178 173 179 155 142 124 104 90 96 108 198 215 211 213 233 235 239 249 254 257 256 257 255 257
246 248 252 256 261 269 241 249 252 247 242 249 251 248 254 261 260 253 299 158 171 175 180 172 161 135 122 104 97 106 128 161 197 212 225 238 253 256 255 249 251 257 257 255
261 253 241 240 245 253 253 242 242 247 243 250 240 243 246 251 284 18 288 182 165 176 183 184 155 149 142 132 121 106 91 71 61 100 244 240 253 265 275 288 289 283 278 274
254 261 277 286 286 239 243 242 253 252 260 258 272 280 282 269 228 264 270 171 173 177 178 178 159 152 138 147 139 139 131 156 178 187 204 212 229 253 271 269 268 270 270 273
333 294 234 276 291 288 282 305 230 242 248 247 247 256 262 273 267 227 213 190 175 182 175 183 166 155 148 162 147 137 153 156 153 197 263 262 259 256 265 270 273 273 275 282
28 315 295 269 259 268 273 263 268 246 244 240 244 244 256 268 290 315 262 176 174 193 177 162 154 159 152 161 142 124 108 89 74 59 43 33 24 15 359 340 320 306 295 287
12 287 282 276 281 283 263 273 263 242 279 292 268 239 239 258 249 305 304 197 194 191 168 161 154 154 155 149 134 115 108 97 88 82 68 57 44 34 21 12 4 354 339 314
356 16 315 273 263 255 264 220 257 278 221 255 277 274 261 272 275 272 285 245 181 165 156 155 159 159 166 144 125 121 106 89 77 56 43 33 18 8 2 352 349 349 351 346
126 273 252 276 292 321 305 284 234 237 256 269 270 263 281 278 285 294 237 271 165 159 157 154 158 154 160 137 125 109 98 95 75 43 19 15 11 1 356 348 342 337 340 339
271 268 280 276 283 291 302 304 293 271 230 239 254 262 275 284 280 275 289 193 157 161 157 162 162 162 156 130 115 108 101 90 64 30 10 11 12 359 348 342 338 335 335 339
248 272 306 292 287 277 317 297 279 278 265 255 251 261 251 268 282 282 287 149 142 186 176 166 162 163 145 122 116 111 111 80 63 46 27 7 13 5 352 350 346 336 339 338
292 299 301 274 301 331 293 263 272 270 265 258 256 259 265 258 261 282 181 159 198 190 184 168 163 155 139 126 121 104 93 87 74 50 29 11 11 8 356 356 346 342 357 326
261 272 274 281 301 272 258 280 302 295 285 263 255 254 265 264 268 264 312 188 204 185 174 157 152 148 130 124 120 118 105 86 65 45 37 10 10 8 355 6 340 346 330 332
253 248 248 251 256 280 290 265 271 292 307 268 254 261 260 253 284 204 223 297 180 160 146 145 147 139 132 123 126 116 96 76 54 45 27 17 11 9 357 356 343 337 334 356
230 237 245 241 241 248 263 282 259 351 282 286 268 252 252 253 246 206 182 149 123 135 140 133 133 125 116 118 125 118 101 73 60 43 28 13 14 5 355 339 348 4 10 14
268 278 262 253 248 254 261 280 289 269 279 329 329 312 253 244 243 188 142 124 127 125 129 132 126 117 113 118 123 101 78 60 47 39 17 353 358 359 348 6 5 359 2 354
257 258 261 274 268 263 277 288 235 289 323 318 319 310 254 208 186 150 145 133 129 127 123 120 123 122 118 124 115 85 62 62 34 7 2 8 13 11 1 359 356 347 344 343
261 263 267 258 268 277 281 298 297 295 300 304 305 305 190 146 133 133 132 132 130 132 127 132 134 126 122 109 83 71 65 34 16 15 24 11 349 351 351 348 348 347 347 348
259 263 274 279 266 275 290 296 302 300 307 304 305 294 144 136 133 125 125 126 127 125 125 145 132 117 102 92 80 65 57 43 27 34 32 352 1 11 1 358 360 358 359 353
264 278 269 265 275 279 277 281 294 302 303 300 287 279 142 134 131 130 125 128 129 121 132 131 118 107 93 80 68 59 53 59 44 29 6 13 4 11 350 352 353 359 352 343
250 254 256 260 262 271 282 287 289 294 296 299 292 192 134 128 125 131 135 133 135 134 131 119 106 98 91 84 80 74 58 48 64 17 20 350 359 356 352 348 342 348 342 329